TimeEST,TemperatureF,Dew PointF,Humidity,Sea Level PressureIn,VisibilityMPH,Wind Direction,Wind SpeedMPH,Gust SpeedMPH,PrecipitationIn,Events,Conditions,WindDirDegrees,DateUTC
12:15 AM,21.6,14.9,76,30.14,10.0,North,6.9,-,N/A,,Overcast,10,2013-01-24 05:15:00
12:55 AM,20.5,15.6,81,30.15,10.0,NW,3.5,-,N/A,,Overcast,310,2013-01-24 05:55:00
1:15 AM,21.0,16.0,81,30.16,10.0,NW,8.1,-,N/A,,Overcast,310,2013-01-24 06:15:00
1:35 AM,21.4,16.5,82,30.17,10.0,NW,8.1,-,N/A,,Overcast,320,2013-01-24 06:35:00
1:55 AM,21.0,16.7,83,30.19,7.0,NNW,10.4,16.1,N/A,Snow,Light Snow,330,2013-01-24 06:55:00
2:15 AM,20.3,12.2,71,30.20,10.0,NNW,10.4,19.6,N/A,,Scattered Clouds,330,2013-01-24 07:15:00
2:35 AM,19.4,11.5,71,30.23,10.0,NW,12.7,17.3,N/A,,Scattered Clouds,310,2013-01-24 07:35:00
2:55 AM,19.0,11.3,72,30.25,10.0,NNW,9.2,-,N/A,,Scattered Clouds,330,2013-01-24 07:55:00
3:15 AM,19.0,12.0,74,30.27,10.0,NNW,9.2,17.3,N/A,,Scattered Clouds,330,2013-01-24 08:15:00
3:35 AM,19.0,12.4,75,30.29,10.0,NNW,11.5,21.9,N/A,Snow,Light Snow,330,2013-01-24 08:35:00
3:55 AM,17.6,12.0,79,30.30,10.0,NNW,10.4,17.3,N/A,,Scattered Clouds,330,2013-01-24 08:55:00
4:15 AM,17.6,10.6,74,30.31,10.0,NNW,8.1,18.4,N/A,,Clear,340,2013-01-24 09:15:00
4:35 AM,17.6,9.3,70,30.33,10.0,North,13.8,19.6,N/A,,Clear,350,2013-01-24 09:35:00
4:55 AM,17.6,7.7,65,30.34,10.0,North,15.0,18.4,N/A,,Clear,350,2013-01-24 09:55:00
5:15 AM,15.8,6.4,67,30.35,10.0,NNW,6.9,-,N/A,,Clear,330,2013-01-24 10:15:00
5:35 AM,15.3,5.9,67,30.37,10.0,NNW,9.2,-,N/A,,Clear,330,2013-01-24 10:35:00
5:55 AM,15.3,6.4,68,30.37,10.0,NNW,8.1,-,N/A,,Clear,340,2013-01-24 10:55:00
6:15 AM,15.3,7.3,71,30.39,10.0,NNW,6.9,-,N/A,,Clear,330,2013-01-24 11:15:00
6:35 AM,15.3,7.9,73,30.42,10.0,NNW,5.8,-,N/A,,Clear,340,2013-01-24 11:35:00
6:55 AM,15.3,8.6,75,30.43,10.0,NNW,6.9,-,N/A,,Clear,340,2013-01-24 11:55:00
7:15 AM,14.5,8.4,77,30.45,10.0,NNW,8.1,-,N/A,,Clear,340,2013-01-24 12:15:00
7:35 AM,14.0,8.4,78,30.46,10.0,NNW,8.1,-,N/A,,Clear,340,2013-01-24 12:35:00
7:55 AM,12.7,7.7,80,30.47,10.0,North,6.9,-,N/A,,Clear,350,2013-01-24 12:55:00
8:15 AM,12.7,7.7,80,30.48,10.0,North,4.6,-,N/A,,Clear,350,2013-01-24 13:15:00
8:35 AM,12.9,7.9,80,30.49,10.0,North,3.5,-,N/A,,Clear,350,2013-01-24 13:35:00
8:55 AM,14.2,9.3,81,30.50,10.0,North,4.6,-,N/A,,Clear,360,2013-01-24 13:55:00
9:15 AM,15.3,9.7,79,30.51,10.0,North,6.9,-,N/A,,Clear,10,2013-01-24 14:15:00
9:35 AM,15.3,8.8,76,30.53,10.0,North,8.1,-,N/A,,Clear,10,2013-01-24 14:35:00
9:55 AM,15.4,8.2,73,30.55,10.0,NNE,10.4,16.1,N/A,,Clear,30,2013-01-24 14:55:00
10:15 AM,17.6,9.9,72,30.56,10.0,NNE,9.2,-,N/A,,Clear,20,2013-01-24 15:15:00
10:35 AM,17.6,9.9,72,30.58,10.0,NNE,8.1,-,N/A,,Clear,20,2013-01-24 15:35:00
10:55 AM,17.6,9.5,71,30.59,10.0,NNE,9.2,-,N/A,,Clear,30,2013-01-24 15:55:00
11:15 AM,18.9,9.3,66,30.60,10.0,ENE,9.2,-,N/A,,Clear,60,2013-01-24 16:15:00
11:35 AM,19.0,9.0,65,30.60,10.0,NE,6.9,-,N/A,,Clear,40,2013-01-24 16:35:00
11:55 AM,20.3,8.2,60,30.61,10.0,NE,6.9,-,N/A,,Clear,40,2013-01-24 16:55:00
12:15 PM,20.3,7.7,58,30.59,10.0,NE,6.9,-,N/A,,Clear,40,2013-01-24 17:15:00
12:35 PM,20.3,7.0,56,30.58,10.0,NNE,5.8,-,N/A,,Clear,30,2013-01-24 17:35:00
12:55 PM,21.2,6.3,53,30.58,10.0,NNE,5.8,-,N/A,,Clear,20,2013-01-24 17:55:00
1:15 PM,21.6,6.4,52,30.57,10.0,Calm,Calm,-,N/A,,Clear,0,2013-01-24 18:15:00
1:35 PM,21.7,5.4,49,30.57,10.0,NNE,3.5,-,N/A,,Clear,30,2013-01-24 18:35:00
1:55 PM,22.8,4.8,46,30.56,10.0,East,4.6,-,N/A,,Clear,90,2013-01-24 18:55:00
2:15 PM,22.8,5.4,47,30.55,10.0,NE,5.8,-,N/A,,Clear,50,2013-01-24 19:15:00
2:35 PM,22.8,6.4,50,30.54,10.0,ENE,6.9,-,N/A,,Clear,60,2013-01-24 19:35:00
2:55 PM,24.4,6.3,46,30.54,10.0,NNE,6.9,-,N/A,,Clear,30,2013-01-24 19:55:00
3:15 PM,22.8,4.1,45,30.54,10.0,East,5.8,-,N/A,,Clear,90,2013-01-24 20:15:00
3:35 PM,22.8,5.4,47,30.54,10.0,NE,5.8,-,N/A,,Clear,40,2013-01-24 20:35:00
3:55 PM,23.7,5.7,46,30.53,10.0,North,4.6,-,N/A,,Clear,360,2013-01-24 20:55:00
4:15 PM,22.8,5.2,47,30.53,10.0,ENE,6.9,-,N/A,,Clear,70,2013-01-24 21:15:00
4:35 PM,23.0,3.6,43,30.53,10.0,Calm,Calm,-,N/A,,Clear,0,2013-01-24 21:35:00
4:55 PM,22.8,5.4,47,30.53,10.0,ESE,4.6,-,N/A,,Clear,110,2013-01-24 21:55:00
5:15 PM,22.8,7.0,51,30.54,10.0,East,4.6,-,N/A,,Clear,80,2013-01-24 22:15:00
5:35 PM,21.0,6.6,54,30.54,10.0,East,4.6,-,N/A,,Clear,80,2013-01-24 22:35:00
5:55 PM,20.8,5.5,52,30.55,10.0,East,4.6,-,N/A,,Clear,90,2013-01-24 22:55:00
6:15 PM,20.3,6.1,54,30.54,10.0,ESE,4.6,-,N/A,,Clear,110,2013-01-24 23:15:00
6:35 PM,20.3,6.8,56,30.55,10.0,ESE,4.6,-,N/A,,Clear,110,2013-01-24 23:35:00
6:55 PM,20.3,8.2,60,30.55,10.0,East,6.9,-,N/A,,Clear,90,2013-01-24 23:55:00
7:15 PM,19.6,8.6,62,30.54,10.0,East,6.9,-,N/A,,Clear,100,2013-01-25 00:15:00
7:35 PM,19.2,8.6,63,30.54,10.0,East,6.9,-,N/A,,Clear,100,2013-01-25 00:35:00
7:55 PM,19.4,9.3,65,30.54,10.0,East,8.1,-,N/A,,Clear,100,2013-01-25 00:55:00
8:15 PM,19.4,9.3,65,30.53,10.0,East,5.8,-,N/A,,Clear,100,2013-01-25 01:15:00
8:35 PM,19.0,9.5,66,30.53,10.0,East,8.1,-,N/A,,Clear,90,2013-01-25 01:35:00
8:55 PM,19.0,10.2,69,30.52,10.0,East,4.6,-,N/A,,Clear,80,2013-01-25 01:55:00
9:15 PM,19.0,10.8,70,30.50,10.0,East,6.9,-,N/A,,Clear,80,2013-01-25 02:15:00
9:35 PM,19.0,10.4,69,30.51,10.0,East,4.6,-,N/A,,Clear,90,2013-01-25 02:35:00
9:55 PM,19.0,10.4,69,30.50,10.0,East,5.8,-,N/A,,Clear,90,2013-01-25 02:55:00
10:15 PM,19.0,10.2,69,30.49,10.0,ESE,3.5,-,N/A,,Clear,110,2013-01-25 03:15:00
10:35 PM,19.4,10.2,68,30.50,10.0,East,6.9,-,N/A,,Clear,100,2013-01-25 03:35:00
10:55 PM,19.2,10.0,67,30.49,10.0,ESE,6.9,-,N/A,,Clear,110,2013-01-25 03:55:00
11:15 PM,19.4,10.2,68,30.48,10.0,ESE,5.8,-,N/A,,Clear,110,2013-01-25 04:15:00
11:35 PM,20.3,10.4,66,30.48,10.0,ESE,5.8,-,N/A,,Clear,120,2013-01-25 04:35:00
11:55 PM,20.3,10.4,66,30.47,10.0,ESE,8.1,-,N/A,,Clear,120,2013-01-25 04:55:00